This demonstration page uses our WeatherBlox Daily Observations layout. Learn more.

Left ArrowRight Arrow

39.08367, -84.50855

Hourly Observations for June 18, 2020

Temp ( °F °C ) Dew Point ( °F °C ) Humidity (%) Winds ( mph kmh ) Pressure ( in mb ) Visibility ( mi km ) Precip ( " mm )
12:53 am 00:53 Clear 63 17.2 58 14.4 84 84 Calm 30.08 1019 10 16.0934 0 0
1:53 am 01:53 Mostly Cloudy 60 15.6 57 13.9 90 90 Calm 30.07 1018 10 16.0934 0 0
2:53 am 02:53 Clear 60 15.6 57 13.9 90 90 Calm 30.05 1018 10 16.0934 0 0
3:53 am 03:53 Clear 58 14.4 56 13.3 93 93 Calm 30.06 1018 10 16.0934 0 0
4:53 am 04:53 Clear 59 15 57 13.9 93 93 NE 5 7 30.05 1018 10 16.0934 0 0
5:53 am 05:53 Clear 58 14.4 56 13.3 93 93 Calm 30.05 1018 10 16.0934 0 0
6:41 am 06:41 Sunny with Mist and Fog 58 14.4 57 13.9 97 97 Calm 30.06 1018 2.5 4.02335 0 0
6:49 am 06:49 Sunny 59 15 57 14 94 94 Calm 30.06 1018 10 16.0934 0 0
6:53 am 06:53 Sunny 59 15 58 14.4 96 96 Calm 30.05 1018 10 16.0934 0 0
7:53 am 07:53 Sunny 63 17.2 58 14.4 84 84 NNE 3 6 30.08 1019 10 16.0934 0 0
8:53 am 08:53 Sunny 67 19.4 60 15.6 79 79 Calm 30.08 1019 10 16.0934 0 0
9:53 am 09:53 Mostly Cloudy 69 20.6 60 15.6 73 73 undefined N/A 30.09 1019 10 16.0934 0 0
10:53 am 10:53 Mostly Cloudy 71 21.7 60 15.6 68 68 ENE 3 6 30.09 1019 10 16.0934 0 0
11:53 am 11:53 Cloudy with Light Rain 72 22.2 61 16.1 68 68 Calm 30.09 1019 10 16.0934 0.001 0.001
12:53 pm 12:53 Mostly Cloudy 77 25 61 16.1 58 58 NNW 6 9 30.06 1018 10 16.0934 0.001 0.001
1:53 pm 13:53 Partly Cloudy 79 26.1 61 16.1 54 54 VRB 5 7 30.04 1017 10 16.0934 0 0
2:53 pm 14:53 Mostly Cloudy 80 26.7 60 15.6 51 51 VRB 7 11 30.02 1017 10 16.0934 0.001 0.001
3:53 pm 15:53 Mostly Cloudy 82 27.8 60 15.6 47 47 NE 10 17 30 1016 10 16.0934 0 0
4:53 pm 16:53 Mostly Cloudy with Nearby Thunderstorms 70 21.1 64 17.8 82 82 ESE 13 20 30.02 1017 4 6.43736 0.21 5.334
5:13 pm 17:13 Cloudy with Thunderstorms 70 21.1 65 18.3 84 84 S 9 15 30.02 1016 4 6.43736 0.1 2.54
5:37 pm 17:37 Partly Cloudy with Nearby Thunderstorms 71 21.7 67 19.4 87 87 S 6 9 30.01 1016 10 16.0934 0.1 2.54
5:53 pm 17:53 Sunny with Nearby Thunderstorms 73 22.8 66 18.9 79 79 SSE 3 6 30 1016 10 16.0934 0.1 2.54
6:00 pm 18:00 Mostly Sunny 73 22.8 66 18.9 79 79 SSE 3 6 29.99 1016 10 16.0934 0 0
6:53 pm 18:53 Mostly Cloudy 71 21.7 65 18.3 81 81 Calm 30 1016 10 16.0934 0.001 0.001
7:53 pm 19:53 Sunny 70 21.1 67 19.4 90 90 S 5 7 30.01 1016 10 16.0934 0.001 0.001
8:53 pm 20:53 Partly Cloudy 69 20.6 66 18.9 90 90 SSW 5 7 30.01 1016 10 16.0934 0 0
9:53 pm 21:53 Clear 67 19.4 65 18.3 93 93 Calm 30.01 1016 10 16.0934 0 0
10:53 pm 22:53 Clear 66 18.9 65 18.3 96 96 Calm 30.02 1017 8 12.87472 0 0
11:50 pm 23:50 Clear with Mist and Fog 64 18 64 18 100 100 Calm 30.02 1017 1.75 2.816345 0 0
11:53 pm 23:53 Clear with Mist and Fog 65 18.3 63 17.2 93 93 Calm 30.03 1017 2 3.21868 0 0

Powered by AerisWeather